Regional Weather Roundup
Issued by NWS

Home | Current Version | Previous Version | Text Only | Print | Product List | Glossary On
Versions: 1 2 3 4 5 6 7 8 9 10 11 12 13 14 15 16 17 18 19 20 21 22 23 24 25 26 27 28
000
ASUS45 KPSR 010810
RWRAZ

ARIZONA HOURLY REGIONAL WEATHER ROUNDUP
NATIONAL WEATHER SERVICE PHOENIX AZ
100 AM MST SUN MAY 01 2016

NOTE: FAIR INDICATES FEW OR NO CLOUDS BELOW 12,000 FEET WITH NO
SIGNIFICANT WEATHER AND/OR OBSTRUCTIONS TO VISIBILITY.

AZZ001>003-036-010900-
NORTHWEST ARIZONA

CITY           SKY/WX    TMP DP  RH WIND       PRES   REMARKS
BULLHEAD CITY  PTCLDY    64  48  55 NE18      29.80R
KINGMAN        MOCLDY    48  44  86 NE7       29.84R
$$

AZZ004>008-015-016-018-010900-
NORTH CENTRAL ARIZONA

CITY           SKY/WX    TMP DP  RH WIND       PRES   REMARKS
GRAND CANYON   CLOUDY    41  36  82 NE12      29.90S
WILLIAMS       CLOUDY    37  34  87 SE3       29.95S
PRESCOTT       CLOUDY    40  39  97 W6        29.85S
FLAGSTAFF      LGT SNOW  32  32 100 E3        29.88F FOG
PAYSON         CLOUDY    43  37  81 NE3       29.86S
PAGE           CLOUDY    50  43  77 CALM      29.88R
$$

AZZ009>014-017-010900-
NORTHEAST ARIZONA

CITY           SKY/WX    TMP DP  RH WIND       PRES   REMARKS
WINSLOW        RAIN      42  39  89 SW20      29.86R FOG
SAINT JOHNS    LGT RAIN  42  39  89 W5        29.87F
WINDOW ROCK    LGT SNOW  34  32  92 E7        29.93R FOG     WCI  28
SHOW LOW       CLOUDY    36  32  87 SE7       29.86F WCI  30
$$

AZZ023-010900-
GREATER PHOENIX AREA

CITY           SKY/WX    TMP DP  RH WIND       PRES   REMARKS
PHOENIX        MOCLDY    62  48  60 E3        29.73S
BUCKEYE        CLOUDY    55  55 100 CALM      29.76S
LUKE AFB       PTCLDY    59  48  65 W3        29.74S
DEER VALLEY    PTCLDY    57  44  62 N8        29.74S
SCOTTSDALE     PTCLDY    57  46  66 CALM      29.75F
MESA-GATEWAY   MOCLDY    55  45  67 CALM      29.76R
$$

AZZ027-028-010900-
SOUTHWEST MARICOPA COUNTY AND PINAL COUNTY

CITY           SKY/WX    TMP DP  RH WIND       PRES   REMARKS
CASA GRANDE    CLOUDY    61  46  59 CALM      29.77S
GILA BEND      CLOUDY    59  52  77 CALM      29.73S
$$

AZZ503-504-507>509-010900-
SOUTHEAST ARIZONA

CITY           SKY/WX    TMP DP  RH WIND       PRES   REMARKS
TUCSON         CLEAR     59  33  37 CALM      29.82R
DAVIS-MONTHAN  CLEAR     56  34  43 SW6       29.80R
NOGALES        CLEAR     50  34  54 SE5       29.83S
SIERRA VISTA   PTCLDY    52  29  42 CALM      29.85F
DOUGLAS        CLEAR     55  29  36 SW16      29.85R
SAFFORD        PTCLDY    54  43  66 W9        29.78R
$$

AZZ020-021-025-026-031-010900-
SOUTHWEST ARIZONA

CITY           SKY/WX    TMP DP  RH WIND       PRES   REMARKS
YUMA           PTCLDY    63  46  54 W6        29.74R
$$

CAZ031-033-041-043-047-048-061-010900-
SOUTHERN CALIFORNIA

CITY           SKY/WX    TMP DP  RH WIND       PRES   REMARKS
DOWNTOWN L.A.  CLEAR     59  51  75 CALM      29.85S
L.A. AIRPORT   PTCLDY    59  51  75 CALM      29.86R
SAN DIEGO      PTCLDY    61  51  70 E5        29.88S
BURBANK        CLEAR     57  48  72 SE6       29.85R
ONTARIO        PTCLDY    55  46  71 NW3       29.85S
RIVERSIDE      PTCLDY    57  45  64 CALM      29.86R
PALM SPRINGS   PTCLDY    67  47  48 VRB6      29.77R
EL CENTRO NAS  CLEAR     65  45  48 W10       29.76S
IMPERIAL       CLEAR     64  46  52 W7        29.74R
BLYTHE         PTCLDY    61  48  62 NW7       29.75S
NEEDLES        PTCLDY    63  48  58 N9        29.77R
$$

NVZ020-UTZ003-010900-
SOUTHERN NEVADA-UTAH

CITY           SKY/WX    TMP DP  RH WIND       PRES   REMARKS
LAS VEGAS      MOCLDY    57  49  74 S6        29.80R
SALT LAKE CITY CLOUDY    51  25  36 E20G25    30.02R
$$

NMZ009-TXZ055-010900-
NEW MEXICO-WEST TEXAS

CITY           SKY/WX    TMP DP  RH WIND       PRES   REMARKS
ALBUQUERQUE    CLOUDY    44  33  65 E36G43    29.92F
EL PASO        PTCLDY    68  16  13 W14       29.78F
$$


........................KEY........................
SKY/WX - SKY CONDITION/WEATHER
TMP    - TEMPERATURE IN FAHRENHEIT
DP     - DEW POINT IN FAHRENHEIT
RH     - RELATIVE HUMIDITY IN PERCENT
WIND   - DIRECTION AND SPEED IN MILES PER HOUR (MPH)
VRB    - VARIABLE WIND DIRECTION
PRES   - MEAN SEA LEVEL PRESSURE IN INCHES OF MERCURY
         F - FALLING PRESSURE   R - RISING PRESSURE
         S - STEADY PRESSURE
VSB    - VISIBILITY IN MILES
HX     - HEAT INDEX IN FAHRENHEIT
WCI    - WIND CHILL INDEX IN FAHRENHEIT
TC     - TEMPERATURE IN CELSIUS WHICH IS ALSO KNOWN AS
         TEMPERATURE IN CENTIGRADE
AFB    - AIR FORCE BASE
         LUKE AFB IS LUKE AIR FORCE BASE
         DAVIS-MONTHAN IS DAVIS-MONTHAN AIR FORCE BASE
NAS    - NAVAL AIR STATION
         EL CENTRO NAS IS EL CENTRO NAVAL AIR STATION
N/A    - NOT AVAILABLE





USA.gov is the U.S. government's official web portal to all federal, state and local government web resources and services.